Change the Weather History Date:

Saturday, October 20, 2012

  Actual Average (KMSP) Record (KMSP)
Temperature  
Mean Temperature 38 °F 47 °F  
Max Temperature 51 °F 56 °F 83 °F (1953)
Min Temperature 26 °F 38 °F 18 °F (1960)
Degree Days  
Heating Degree Days 26 18  
Month to date heating degree days 282  
Since 1 July heating degree days 455  
Cooling Degree Days 0 0  
Month to date cooling degree days 3  
Year to date cooling degree days 750  
Moisture  
Dew Point 34 °F    
Average Humidity 85    
Maximum Humidity 100    
Minimum Humidity 54    
Precipitation  
Precipitation 0.00 in 0.07 in 2.64 in (1934)
Month to date precipitation 1.73  
Year to date precipitation 26.98  
Snow  
Snow 0.00 in 0.00 in 3.00 in (1916)
Month to date snowfall 0.1  
Since 1 July snowfall 0.1  
Since 1 September snowfall 0.1  
Snow Depth -    
Sea Level Pressure  
Sea Level Pressure 29.79 in    
Wind  
Wind Speed 2 mph (South)    
Max Wind Speed 8 mph    
Max Gust Speed -    
Visibility 7 miles    
Events Fog    
T = Trace of Precipitation, MM = Missing Value Source: NWS Daily Summary

Daily Weather History Graph

Daily Weather History Graph

Search for Another Location

Airport or City:

Trip Planner

Search our weather history database for the weather conditions in past years. The results will help you decide how hot, cold, wet, or windy it might be!

Date:

Astronomy

Oct. 20, 2012 Rise Set
Actual Time 7:33 AM CDT 6:15 PM CDT
Civil Twilight 7:03 AM CDT 6:45 PM CDT
Nautical Twilight 6:29 AM CDT 7:19 PM CDT
Astronomical Twilight 5:54 AM CDT 7:53 PM CDT
Moon 1:17 PM CDT (10/20) 10:54 PM CDT (10/20)
Length of Visible Light 11h 42m
Length of Day
10h 42m
Waxing Crescent, 34% of the Moon is Illuminated
Oct 20
Waxing Crescent
Oct 21
First Quarter
Oct 29
Full
Nov 6
Last Quarter
Nov 13
New

Hourly Weather History & Observations

Time (CDT) Temp. Windchill Dew Point Humidity Pressure Visibility Wind Dir Wind Speed Gust Speed Precip Events Conditions
12:15 AM 32.0 °F - 32.0 °F 100% 29.72 in 7.0 mi Calm Calm - N/A   Mostly Cloudy
12:35 AM 32.0 °F - 32.0 °F 100% 29.73 in 10.0 mi Calm Calm - N/A   Mostly Cloudy
12:55 AM 32.0 °F - 32.0 °F 100% 29.74 in 7.0 mi Calm Calm - N/A   Scattered Clouds
1:15 AM 32.0 °F - 32.0 °F 100% 29.74 in 10.0 mi Calm Calm - N/A   Clear
1:35 AM 32.0 °F - 32.0 °F 100% 29.74 in 1.0 mi Calm Calm - N/A   Mist
1:55 AM 32.0 °F - 32.0 °F 100% 29.74 in 4.0 mi Calm Calm - N/A   Clear
2:15 AM 30.2 °F - 30.2 °F 100% 29.74 in 7.0 mi Calm Calm - N/A   Clear
2:35 AM 30.2 °F - 30.2 °F 100% 29.74 in 2.0 mi Calm Calm - N/A   Clear
2:55 AM 30.2 °F - 30.2 °F 100% 29.74 in 1.0 mi Calm Calm - N/A   Mist
3:15 AM 30.2 °F - 30.2 °F 100% 29.74 in 3.0 mi Calm Calm - N/A   Clear
3:35 AM 30.2 °F - 30.2 °F 100% 29.74 in 5.0 mi Calm Calm - N/A   Clear
3:55 AM 28.4 °F 24.6 °F 28.4 °F 100% 29.74 in 1.5 mi East 3.5 mph - N/A   Mist
4:15 AM 28.4 °F - 28.4 °F 100% 29.75 in 2.0 mi Calm Calm - N/A   Clear
4:35 AM 28.4 °F - 28.4 °F 100% 29.75 in 0.8 mi Calm Calm - N/A   Mist
4:55 AM 26.6 °F - 26.6 °F 100% 29.76 in 0.5 mi Calm Calm - N/A Fog Light Freezing Fog
5:15 AM 28.4 °F - 28.4 °F 100% 29.76 in 0.8 mi Calm Calm - N/A   Mist
5:35 AM 28.4 °F - 28.4 °F 100% 29.77 in 0.5 mi Calm Calm - N/A Fog Light Freezing Fog
5:55 AM 26.6 °F - 26.6 °F 100% 29.77 in 0.2 mi Calm Calm - N/A Fog Light Freezing Fog
6:15 AM 26.6 °F - 26.6 °F 100% 29.78 in 0.8 mi Calm Calm - N/A   Overcast
6:35 AM 28.4 °F - 28.4 °F 100% 29.78 in 0.2 mi Calm Calm - N/A Fog Light Freezing Fog
6:55 AM 28.4 °F - 28.4 °F 100% 29.79 in 0.2 mi Calm Calm - N/A Fog Light Freezing Fog
7:15 AM 28.4 °F - 28.4 °F 100% 29.79 in 1.0 mi Calm Calm - N/A   Overcast
7:35 AM 28.4 °F - 28.4 °F 100% 29.79 in 0.5 mi Calm Calm - N/A Fog Light Freezing Fog
7:55 AM 28.4 °F - 28.4 °F 100% 29.79 in 0.2 mi Calm Calm - N/A Fog Light Freezing Fog
8:15 AM 28.4 °F - 28.4 °F 100% 29.80 in 2.0 mi Calm Calm - N/A   Overcast
8:35 AM 30.2 °F - 30.2 °F 100% 29.80 in 0.2 mi Calm Calm - N/A Fog Light Freezing Fog
8:55 AM 30.2 °F - 30.2 °F 100% 29.81 in 0.2 mi Calm Calm - N/A Fog Light Freezing Fog
9:15 AM 32.0 °F - 32.0 °F 100% 29.81 in 0.2 mi Calm Calm - N/A Fog Light Freezing Fog
9:35 AM 32.0 °F 28.7 °F 32.0 °F 100% 29.81 in 0.2 mi ESE 3.5 mph - N/A Fog Fog
9:55 AM 33.8 °F - 33.8 °F 100% 29.81 in 0.5 mi Calm Calm - N/A Fog Fog
10:15 AM 37.4 °F - 37.4 °F 100% 29.81 in 5.0 mi Calm Calm - N/A   Mostly Cloudy
10:35 AM 39.2 °F - 39.2 °F 100% 29.82 in 10.0 mi Calm Calm - N/A   Scattered Clouds
10:55 AM 41.0 °F 39.0 °F 41.0 °F 100% 29.82 in 7.0 mi SW 3.5 mph - N/A   Clear
11:15 AM 42.8 °F 40.1 °F 39.2 °F 87% 29.81 in 10.0 mi SW 4.6 mph - N/A   Clear
11:35 AM 44.6 °F - 39.2 °F 81% 29.82 in 10.0 mi Calm Calm - N/A   Clear
11:55 AM 46.4 °F 45.2 °F 37.4 °F 71% 29.81 in 10.0 mi SSW 3.5 mph - N/A   Clear
12:15 PM 48.2 °F - 39.2 °F 71% 29.81 in 10.0 mi SW 3.5 mph - N/A   Clear
12:35 PM 50.0 °F - 37.4 °F 62% 29.81 in 10.0 mi SW 3.5 mph - N/A   Clear
12:55 PM 50.0 °F - 37.4 °F 62% 29.80 in 10.0 mi WSW 5.8 mph - N/A   Clear
1:15 PM 51.8 °F - 35.6 °F 54% 29.80 in 10.0 mi WSW 8.1 mph - N/A   Clear
1:35 PM 51.8 °F - 35.6 °F 54% 29.79 in 10.0 mi SW 5.8 mph - N/A   Clear
1:55 PM 51.8 °F - 35.6 °F 54% 29.79 in 10.0 mi WSW 6.9 mph - N/A   Clear
2:15 PM 51.8 °F - 35.6 °F 54% 29.79 in 10.0 mi SW 6.9 mph - N/A   Clear
2:35 PM 51.8 °F - 37.4 °F 58% 29.78 in 10.0 mi WSW 8.1 mph - N/A   Clear
2:55 PM 51.8 °F - 35.6 °F 54% 29.78 in 10.0 mi SSW 6.9 mph - N/A   Clear
3:15 PM 51.8 °F - 35.6 °F 54% 29.79 in 10.0 mi SW 5.8 mph - N/A   Clear
3:35 PM 51.8 °F - 35.6 °F 54% 29.79 in 10.0 mi WSW 6.9 mph - N/A   Clear
3:55 PM 51.8 °F - 35.6 °F 54% 29.79 in 10.0 mi SW 6.9 mph - N/A   Clear
4:15 PM 51.8 °F - 35.6 °F 54% 29.79 in 10.0 mi SSW 5.8 mph - N/A   Clear
4:35 PM 51.8 °F - 35.6 °F 54% 29.79 in 10.0 mi SW 6.9 mph - N/A   Clear
4:55 PM 51.8 °F - 37.4 °F 58% 29.79 in 10.0 mi SSW 4.6 mph - N/A   Clear
5:15 PM 51.8 °F - 37.4 °F 58% 29.79 in 10.0 mi South 6.9 mph - N/A   Clear
5:35 PM 50.0 °F - 37.4 °F 62% 29.79 in 10.0 mi South 8.1 mph - N/A   Clear
5:55 PM 50.0 °F - 37.4 °F 62% 29.79 in 10.0 mi South 5.8 mph - N/A   Clear
6:15 PM 46.4 °F - 37.4 °F 71% 29.80 in 10.0 mi Calm Calm - N/A   Clear
6:35 PM 46.4 °F 45.2 °F 37.4 °F 71% 29.80 in 10.0 mi SSE 3.5 mph - N/A   Clear
6:55 PM 46.4 °F 45.2 °F 37.4 °F 71% 29.80 in 10.0 mi SSE 3.5 mph - N/A   Clear
7:15 PM 42.8 °F - 35.6 °F 76% 29.81 in 10.0 mi Calm Calm - N/A   Clear
7:35 PM 41.0 °F 38.0 °F 37.4 °F 87% 29.80 in 10.0 mi SSE 4.6 mph - N/A   Clear
7:55 PM 42.8 °F 40.1 °F 37.4 °F 81% 29.80 in 10.0 mi SSE 4.6 mph - N/A   Clear
8:15 PM 42.8 °F 41.1 °F 37.4 °F 81% 29.81 in 10.0 mi SSE 3.5 mph - N/A   Clear
8:35 PM 41.0 °F 38.0 °F 37.4 °F 87% 29.82 in 10.0 mi South 4.6 mph - N/A   Clear
8:55 PM 42.8 °F 39.3 °F 37.4 °F 81% 29.82 in 10.0 mi SSE 5.8 mph - N/A   Clear
9:15 PM 42.8 °F 40.1 °F 37.4 °F 81% 29.82 in 10.0 mi SSE 4.6 mph - N/A   Clear
9:35 PM 41.0 °F 39.0 °F 37.4 °F 87% 29.83 in 10.0 mi SSE 3.5 mph - N/A   Clear
9:55 PM 41.0 °F 38.0 °F 39.2 °F 93% 29.83 in 10.0 mi SSE 4.6 mph - N/A   Clear
10:15 PM 41.0 °F 37.1 °F 39.2 °F 93% 29.83 in 10.0 mi South 5.8 mph - N/A   Clear
10:35 PM 41.0 °F 38.0 °F 41.0 °F 100% 29.83 in 10.0 mi South 4.6 mph - N/A   Clear
10:55 PM 42.8 °F 39.3 °F 41.0 °F 93% 29.83 in 10.0 mi South 5.8 mph - N/A   Clear
11:15 PM 42.8 °F 39.3 °F 41.0 °F 93% 29.84 in 10.0 mi South 5.8 mph - N/A   Clear
11:35 PM 42.8 °F 39.3 °F 41.0 °F 93% 29.83 in 7.0 mi SSE 5.8 mph - N/A   Clear
11:55 PM 42.8 °F 40.1 °F 41.0 °F 93% 29.83 in 7.0 mi SSE 4.6 mph - N/A   Clear